Burlington, VT

2:30 AM EST on November 13, 2019 (GMT -0500)
Burlington International

Weather History for KBTV - September, 2019

Change the Weather History Date:

Wednesday, September 18, 2019

  Actual Average Record
Temperature  
Mean Temperature 56 °F 60 °F  
Max Temperature 67 °F 70 °F 87 °F (1946)
Min Temperature 45 °F 50 °F 34 °F (1922)
Degree Days  
Heating Degree Days 9 6  
Month to date heating degree days 57 70  
Since 1 July heating degree days 61 112  
Cooling Degree Days 0 1  
Month to date cooling degree days 9 36  
Year to date cooling degree days 589 484  
Growing Degree Days 6 (Base 50)    
Moisture  
Dew Point 42 °F    
Average Humidity 63    
Maximum Humidity 93    
Minimum Humidity 32    
Precipitation  
Precipitation 0.00 in 0.12 in 1.47 in (1905)
Month to date precipitation 2.23 2.07  
Year to date precipitation 28.52 26.14  
Snow  
Snow 0.00 in 0.00 in 0.00 in (2001)
Month to date snowfall 0.0 0.0  
Since 1 July snowfall 0.0 0.0  
Since 1 September snowfall 0.0 0.0  
Snow Depth 0.00 in    
Sea Level Pressure  
Sea Level Pressure 30.31 in    
Wind  
Wind Speed 4 mph (NE)    
Max Wind Speed 15 mph    
Max Gust Speed 19 mph    
Visibility 10 miles    
Events Fog    
T = Trace of Precipitation, MM = Missing Value Source: NWS Daily Summary

Daily Weather History Graph

Daily Weather History Graph

Search for Another Location

Airport or City:

Astronomy

Sep. 18, 2019 Rise Set
Actual Time 6:34 AM EDT 6:58 PM EDT
Civil Twilight 6:05 AM EDT 7:27 PM EDT
Nautical Twilight 5:31 AM EDT 8:01 PM EDT
Astronomical Twilight 4:55 AM EDT 8:36 PM EDT
Moon 9:21 PM EDT (9/18) 10:43 AM EDT (9/18)
Length of Visible Light 13h 21m
Length of Day
12h 23m
Waning Gibbous, 82% of the Moon is Illuminated
Sep 18
Waning Gibbous
Sep 21
Last Quarter
Sep 28
New
Oct 5
First Quarter
Oct 13
Full

Hourly Weather History & Observations

Time (EDT) Temp. Windchill Dew Point Humidity Pressure Visibility Wind Dir Wind Speed Gust Speed Precip Events Conditions
12:54 AM 50.0 °F - 46.0 °F 86% 30.26 in 10.0 mi ENE 4.6 mph - N/A   Clear
1:54 AM 48.9 °F - 45.0 °F 86% 30.27 in 10.0 mi East 3.5 mph - N/A   Clear
2:54 AM 48.0 °F - 45.0 °F 89% 30.27 in 10.0 mi Calm Calm - N/A   Clear
3:54 AM 46.9 °F - 44.1 °F 90% 30.27 in 10.0 mi Calm Calm - N/A   Clear
4:35 AM 46.0 °F - 43.0 °F 89% 30.27 in 10.0 mi Calm Calm - N/A   Scattered Clouds
4:44 AM 46.0 °F - 43.0 °F 89% 30.27 in 10.0 mi Calm Calm - N/A   Mostly Cloudy
4:54 AM 46.0 °F - 43.0 °F 89% 30.28 in 10.0 mi Calm Calm - N/A   Overcast
5:34 AM 46.9 °F - 44.1 °F 90% 30.28 in 10.0 mi East 3.5 mph - N/A   Overcast
5:54 AM 46.9 °F - 44.1 °F 90% 30.29 in 1.0 mi ENE 5.8 mph - N/A   Mostly Cloudy
6:54 AM 45.0 °F - 43.0 °F 93% 30.31 in 7.0 mi Calm Calm - N/A Fog Patches of Fog
7:03 AM 45.0 °F 43.5 °F 43.0 °F 93% 30.31 in 10.0 mi East 3.5 mph - N/A Fog Patches of Fog
7:10 AM 45.0 °F 43.5 °F 43.0 °F 93% 30.31 in 10.0 mi East 3.5 mph - N/A Fog Patches of Fog
7:54 AM 46.0 °F - 43.0 °F 89% 30.33 in 10.0 mi Calm Calm - N/A Fog Patches of Fog
8:54 AM 51.1 °F - 46.0 °F 83% 30.34 in 10.0 mi Variable 3.5 mph - N/A   Clear
9:54 AM 57.0 °F - 46.9 °F 69% 30.35 in 10.0 mi Calm Calm - N/A   Clear
10:54 AM 62.1 °F - 37.9 °F 41% 30.34 in 10.0 mi NNE 10.4 mph - N/A   Partly Cloudy
11:54 AM 63.0 °F - 36.0 °F 37% 30.34 in 10.0 mi North 11.5 mph - N/A   Scattered Clouds
12:54 PM 64.0 °F - 37.9 °F 38% 30.34 in 10.0 mi NNW 6.9 mph - N/A   Partly Cloudy
1:54 PM 66.0 °F - 35.1 °F 32% 30.33 in 10.0 mi East 5.8 mph - N/A   Scattered Clouds
2:54 PM 66.9 °F - 39.9 °F 37% 30.31 in 10.0 mi NW 9.2 mph - N/A   Partly Cloudy
3:54 PM 64.9 °F - 41.0 °F 42% 30.31 in 10.0 mi West 12.7 mph - N/A   Partly Cloudy
4:54 PM 64.9 °F - 39.0 °F 39% 30.31 in 10.0 mi NW 12.7 mph - N/A   Clear
5:54 PM 64.0 °F - 37.9 °F 38% 30.32 in 10.0 mi NNW 6.9 mph - N/A   Clear
6:54 PM 61.0 °F - 39.9 °F 46% 30.32 in 10.0 mi Calm Calm - N/A   Clear
7:54 PM 55.9 °F - 42.1 °F 60% 30.33 in 10.0 mi Calm Calm - N/A   Clear
8:54 PM 52.0 °F - 44.1 °F 74% 30.33 in 10.0 mi Calm Calm - N/A   Clear
9:54 PM 48.9 °F - 44.1 °F 83% 30.34 in 10.0 mi ENE 3.5 mph - N/A   Clear
10:54 PM 48.0 °F - 43.0 °F 83% 30.33 in 10.0 mi ENE 3.5 mph - N/A   Clear
11:54 PM 46.0 °F 44.8 °F 42.1 °F 86% 30.35 in 10.0 mi SE 3.5 mph - N/A   Clear